Wind from 031 at 2 knots

Air temperature 1.7° C
Dewpoint 0.1° C

Last reported at 2014-Apr-18 02:47 UTC.
Time now 2014-Apr-18 03:09 UTC

Location: N 59°50' E 010°17'.
View on Google Maps.

See reports from other nearby stations

Tides Stations Pressure Air Temp Water Temp Dewpoint Dewpoint depression Visibility Wind Speed Wind Dir Waves Ship positions

  
sailing weather and tide predictions

DW0333 Tranby-Lier NO weather

date/time (UTC)wind fromknots sea level pressurealtimeterstation pressurevisibilityair tempwater tempwave heightnotes
2014-Apr-18 02:47 031 2 1.7
2014-Apr-18 02:32 342 2 1.7
2014-Apr-18 02:16 288 2 2.2
2014-Apr-18 02:02 318 2 2.2
2014-Apr-18 01:46 319 1 2.2
2014-Apr-18 01:31 315 1 2.2
2014-Apr-18 01:17 059 0 2.8
2014-Apr-18 01:02 323 1 2.8
2014-Apr-18 00:44 293 2 2.8
2014-Apr-18 00:29 327 3 2.8
2014-Apr-18 00:14 342 2 2.8
2014-Apr-17 23:59 340 2 2.8
2014-Apr-17 23:44 306 3 2.8
2014-Apr-17 23:28 042 3 2.8
2014-Apr-17 23:13 310 3 2.8
2014-Apr-17 22:58 313 4 2.8
2014-Apr-17 22:42 328 3 2.8
2014-Apr-17 22:27 294 4 2.8
2014-Apr-17 22:12 323 3 2.8
2014-Apr-17 21:57 331 0 2.8
2014-Apr-17 21:42 034 1 2.8
2014-Apr-17 21:27 353 2 2.8
2014-Apr-17 21:12 288 1 2.8
2014-Apr-17 20:57 311 3 2.8
2014-Apr-17 20:41 283 3 2.8
2014-Apr-17 20:27 286 3 2.8
2014-Apr-17 19:56 255 3 2.8
2014-Apr-17 19:41 226 2 3.3
2014-Apr-17 19:24 254 2 3.3
2014-Apr-17 19:09 267 1 3.3
2014-Apr-17 18:55 263 2 3.3
2014-Apr-17 18:24 245 3 3.3
2014-Apr-17 18:08 291 2 3.3
2014-Apr-17 17:53 271 3 3.3
2014-Apr-17 17:39 286 4 3.9
2014-Apr-17 17:23 266 4 3.9
2014-Apr-17 17:08 265 2 3.9
2014-Apr-17 16:53 233 2 4.4
2014-Apr-17 16:23 201 3 3.9
2014-Apr-17 16:07 197 3 3.9
2014-Apr-17 15:53 138 3 3.9
2014-Apr-17 15:38 178 3 4.4
2014-Apr-17 15:21 155 4 4.4
2014-Apr-17 15:06 170 4 4.4
2014-Apr-17 14:51 171 4 3.9
2014-Apr-17 14:37 200 5 3.9
2014-Apr-17 14:21 157 4 3.9
2014-Apr-17 14:06 171 3 3.9
2014-Apr-17 13:49 155 5 3.9
2014-Apr-17 13:34 148 5 3.9
2014-Apr-17 13:19 153 5 3.9
2014-Apr-17 13:04 136 6 3.9
2014-Apr-17 12:48 177 6 3.9
2014-Apr-17 12:33 163 6 3.9
2014-Apr-17 12:18 120 6 3.9
2014-Apr-17 12:03 148 7 3.9
2014-Apr-17 11:48 173 7 3.9
2014-Apr-17 11:32 161 4 3.9
2014-Apr-17 11:18 135 6 3.9
2014-Apr-17 11:02 135 6 3.9
2014-Apr-17 10:47 132 6 3.9
2014-Apr-17 10:32 146 6 3.9
2014-Apr-17 10:17 169 7 3.3
2014-Apr-17 10:01 165 6 3.3
2014-Apr-17 09:46 111 6 3.3
2014-Apr-17 09:31 142 6 3.3
2014-Apr-17 09:17 165 6 3.3
2014-Apr-17 09:01 131 5 3.3
2014-Apr-17 08:47 182 6 3.3
2014-Apr-17 08:31 163 6 2.8
2014-Apr-17 08:14 286 5 2.8
2014-Apr-17 07:59 144 6 2.8
2014-Apr-17 07:44 189 6 2.8
2014-Apr-17 07:29 117 6 2.2
2014-Apr-17 07:13 151 5 2.2
2014-Apr-17 06:58 107 5 2.2
2014-Apr-17 06:43 113 5 2.2
2014-Apr-17 06:28 136 6 2.2
2014-Apr-17 06:13 142 4 2.2
2014-Apr-17 05:57 135 6 1.7
2014-Apr-17 05:42 194 6 1.7
2014-Apr-17 05:28 167 5 1.7
2014-Apr-17 05:12 140 4 1.7
2014-Apr-17 04:57 156 6 1.7
2014-Apr-17 04:41 166 6 1.7
2014-Apr-17 04:26 166 5 1.7
2014-Apr-17 04:11 183 5 2.2
2014-Apr-17 03:56 212 6 2.2
2014-Apr-17 03:41 146 6 2.2
2014-Apr-17 03:09 161 5 2.2
2014-Apr-17 02:54 177 6 2.8
2014-Apr-17 02:39 192 4 2.8
2014-Apr-17 02:24 223 4 2.8
2014-Apr-17 02:08 217 4 2.8
2014-Apr-17 01:53 165 4 2.8
2014-Apr-17 01:38 183 6 3.3
2014-Apr-17 01:23 187 6 3.3
2014-Apr-17 01:07 156 6 3.3
2014-Apr-17 00:52 212 5 3.9
2014-Apr-17 00:37 127 6 3.9
2014-Apr-17 00:23 138 6 3.9
2014-Apr-17 00:07 173 6 4.4
2014-Apr-16 23:52 161 6 4.4
2014-Apr-16 23:37 190 4 5.0
2014-Apr-16 23:21 163 3 5.0
2014-Apr-16 23:06 207 3 5.6
2014-Apr-16 22:51 190 5 5.6
2014-Apr-16 22:36 181 3 5.6
2014-Apr-16 22:22 190 5 5.6
2014-Apr-16 21:49 212 6 5.6
2014-Apr-16 21:34 207 6 6.1
2014-Apr-16 21:19 227 6 6.1
2014-Apr-16 21:04 207 7 6.1
2014-Apr-16 20:48 186 6 6.1
2014-Apr-16 20:33 169 6 6.7
2014-Apr-16 20:18 194 7 6.7
2014-Apr-16 20:03 229 6 6.7
2014-Apr-16 19:47 230 5 6.7
2014-Apr-16 19:32 190 5 6.7
2014-Apr-16 19:17 212 5 6.7
2014-Apr-16 19:02 250 5 7.2
2014-Apr-16 18:47 199 5 7.2
2014-Apr-16 18:32 196 6 7.2
2014-Apr-16 18:17 183 6 7.8
2014-Apr-16 18:01 207 5 7.8
2014-Apr-16 17:47 207 5 8.3
2014-Apr-16 17:31 250 5 8.3
2014-Apr-16 17:16 212 5 8.3
2014-Apr-16 17:01 207 5 8.9
2014-Apr-16 16:44 260 5 8.9
2014-Apr-16 16:29 229 6 9.4
2014-Apr-16 16:16 194 5 9.4
2014-Apr-16 15:59 197 5 9.4
2014-Apr-16 15:44 172 4 10.0
2014-Apr-16 15:29 223 5 9.4
2014-Apr-16 15:13 217 5 9.4
2014-Apr-16 14:58 148 5 8.9
2014-Apr-16 14:44 271 5 8.9
2014-Apr-16 14:28 222 6 8.9
2014-Apr-16 14:12 235 6 8.9
2014-Apr-16 13:57 212 6 8.9
2014-Apr-16 13:42 234 6 8.9
2014-Apr-16 13:27 248 6 8.9
2014-Apr-16 13:12 230 5 8.9
2014-Apr-16 12:57 184 5 8.9
2014-Apr-16 12:41 163 5 8.9
2014-Apr-16 12:26 231 5 8.9
2014-Apr-16 12:11 175 6 9.4
2014-Apr-16 11:56 150 6 8.9
2014-Apr-16 11:41 151 5 8.9
2014-Apr-16 11:26 244 5 8.9
2014-Apr-16 11:09 227 3 8.3
2014-Apr-16 10:54 245 4 8.9
2014-Apr-16 10:39 200 4 8.9
2014-Apr-16 10:25 192 4 8.3
2014-Apr-16 10:09 200 4 8.3
2014-Apr-16 09:53 223 3 7.2
2014-Apr-16 09:39 158 3 7.2
2014-Apr-16 09:23 207 3 6.1
2014-Apr-16 09:08 192 3 5.0
2014-Apr-16 08:52 221 3 5.0
2014-Apr-16 08:37 212 3 5.0
2014-Apr-16 08:22 167 2 5.0
2014-Apr-16 08:07 171 2 4.4
2014-Apr-16 07:52 152 3 3.9
2014-Apr-16 07:37 093 2 3.3
2014-Apr-16 07:22 155 3 3.3
2014-Apr-16 07:07 162 3 3.3
2014-Apr-16 06:52 143 2 2.8
2014-Apr-16 06:36 160 1 2.2
2014-Apr-16 06:21 139 1 2.2
2014-Apr-16 06:04 171 1 2.2
2014-Apr-16 05:49 146 2 2.2
2014-Apr-16 05:34 156 1 2.2
2014-Apr-16 05:19 130 0 2.2
2014-Apr-16 05:04 158 0 2.2
2014-Apr-16 04:48 133 1 2.2
2014-Apr-16 04:33 122 0 2.2
2014-Apr-16 04:18 140 0 2.2
2014-Apr-16 04:02 150 0 2.8
2014-Apr-16 03:48 135 0 2.8
2014-Apr-16 03:33 119 2 3.3
2014-Apr-16 03:18 119 1 2.8
2014-Apr-16 03:03 104 0 3.3